Location: Melbourne
(37.8666°S, 145.1333°E)
Time: 12:21:29
(UTC+10:00)

HST - Visible Passes

Search period start: 02 October 2014 00:00
Search period end: 12 October 2014 01:00
Orbit: 547 x 551 km, 28.5° (Epoch: 30 September)

Date Brightness Start Highest point End Pass type
(mag) Time Alt. Az. Time Alt. Az. Time Alt. Az.
02 Oct 2.4 19:47:54 10° NW 19:50:58 20° N 19:51:12 20° NNE visible
03 Oct 2.3 19:40:32 10° NW 19:43:45 21° N 19:44:39 20° NNE visible
04 Oct 2.4 19:33:14 10° NW 19:36:32 22° N 19:38:03 18° NNE visible
05 Oct 2.4 20:25:59 10° NW 20:29:19 23° N 20:31:24 16° NE visible
06 Oct 2.4 20:18:46 10° NW 20:22:05 23° N 20:24:43 13° NE visible
07 Oct 2.5 20:11:35 10° NW 20:14:51 22° N 20:18:01 10° NE visible
08 Oct 2.7 20:04:27 10° WNW 20:07:36 20° N 20:10:44 10° NE visible
09 Oct 2.8 19:57:23 10° NW 20:00:20 18° N 20:03:16 10° NNE visible
